Location: Recife
(8.0585°S, 34.8848°W)
Time: 10:34:06
(UTC-03:00)

Explorer 7 - Pass Details

Date: 20 April 2026
Orbit: 427 x 536 km, 50.2° (Epoch: 14 May)

Event Time Altitude Azimuth Distance (km) Brightness Sun altitude
Rises 09:43:46 0° 196° (SSW) 2,490 9.9 59.3°
Reaches altitude 10° 09:46:18 10° 178° (S) 1,634 9.2 59.8°
Maximum altitude 09:49:05 20° 129° (SE) 1,162 8.8 60.3°
Drops below altitude 10° 09:51:56 10° 80° (E) 1,677 9.8 60.8°
Sets 09:54:34 0° 63° (ENE) 2,578 10.7 61.3°
